STARLINK-3828 (52469 NORAD) Tracking and Keplerian Element Data

This shows tracking and keplerian element data for the satellite.

Feedback or suggestion? Click here.




ElementValue
Catalog52469
NameSTARLINK-3828
Epoch Orbit130
Epoch Day167.08334491
Epoch Year2022
RAAN65.0025
Inclination53.2167
Eccentricity0.0001953
Argument of Perigee26.7023
Mean Anonmoly111.5324
Mean Motion15.73253153
Decay Rate-0.00032595
L11 52469U 22049U 22167.08334491 -.00032595 00000+0 -22817-3 0 9991
L22 52469 53.2167 65.0025 0001953 26.7023 111.5324 15.73253153 1304

Live tracking and technical data element details for STARLINK-3828 (NORAD 52469). STARLINK-3828 can be tracked NOW for your location showing map with azimuth and elevation plus other details from your city location.

Track the satellite on the map from your city or location and see movement details for azimuth, elevation, latitude, longitude, range, height, and movement on the map or in text.







IsCatalogInMostPopularTable: catalog: 52469, numindb: 1
Update: records affected: 1



GetName: 52469 STARLINK-3828

Hit Count: updated at: Sat, 25 Jun 2022 05:41:53 GMT